Location: Hokitika
(42.7170°S, 170.9670°E)
Time: 14:50:30
(UTC+13:00)

SL-08 R/B - Pass Details

Date: 24 January 2019
Orbit: 946 x 994 km, 83.0° (Epoch: 17 February)

Event Time Altitude Azimuth Distance (km) Brightness Sun altitude
Exits shadow 22:39:25 12° 8° (N) 2,510 6.2 -14.4°
Maximum altitude 22:45:00 63° 87° (E) 1,065 4.5 -15.1°
Drops below altitude 10° 22:51:09 10° 166° (SSE) 2,726 7.3 -15.9°
Sets 22:53:42 0° 169° (SSE) 3,686 8.1 -16.2°
